Location: Asheville, NC
(35.6000°N, 82.5500°W)
Time: 17:31:35
(UTC-04:00)

CUTE-I - Pass Details

Date: 14 February 2018
Orbit: 810 x 826 km, 98.7° (Epoch: 22 May)

Event Time Altitude Azimuth Distance (km) Brightness Sun altitude
Rises 06:42:36 0° 15° (NNE) 3,356 ? -7.8°
Reaches altitude 10° 06:44:58 10° 18° (NNE) 2,422 ? -7.4°
Maximum altitude 06:50:19 71° 102° (ESE) 868 ? -6.3°
Drops below altitude 10° 06:55:40 10° 187° (S) 2,415 ? -5.2°
Sets 06:58:01 0° 189° (S) 3,345 ? -4.8°
